TimeCDT,TemperatureF,Dew PointF,Humidity,Sea Level PressureIn,VisibilityMPH,Wind Direction,Wind SpeedMPH,Gust SpeedMPH,PrecipitationIn,Events,Conditions,WindDirDegrees,DateUTC
12:53 AM,52.0,48.0,86,30.09,10.0,Calm,Calm,-,N/A,,Clear,0,2013-10-09 05:53:00
1:53 AM,50.0,48.0,93,30.09,10.0,Calm,Calm,-,N/A,,Clear,0,2013-10-09 06:53:00
2:53 AM,51.1,48.0,89,30.08,10.0,Calm,Calm,-,N/A,,Partly Cloudy,0,2013-10-09 07:53:00
3:53 AM,52.0,48.9,89,30.08,10.0,Calm,Calm,-,N/A,,Mostly Cloudy,0,2013-10-09 08:53:00
4:53 AM,52.0,48.9,89,30.09,10.0,Calm,Calm,-,N/A,,Clear,0,2013-10-09 09:53:00
5:53 AM,52.0,50.0,93,30.10,10.0,ESE,3.5,-,N/A,,Partly Cloudy,110,2013-10-09 10:53:00
6:53 AM,53.1,50.0,89,30.11,10.0,Calm,Calm,-,N/A,,Partly Cloudy,0,2013-10-09 11:53:00
7:53 AM,55.9,52.0,87,30.14,10.0,Calm,Calm,-,N/A,,Clear,0,2013-10-09 12:53:00
8:53 AM,63.0,57.0,81,30.15,10.0,SE,5.8,-,N/A,,Mostly Cloudy,140,2013-10-09 13:53:00
9:53 AM,69.1,60.1,73,30.15,10.0,South,9.2,-,N/A,,Scattered Clouds,170,2013-10-09 14:53:00
10:53 AM,71.1,61.0,70,30.16,10.0,South,8.1,-,N/A,,Scattered Clouds,190,2013-10-09 15:53:00
11:53 AM,73.0,61.0,66,30.16,10.0,Variable,3.5,-,N/A,,Partly Cloudy,0,2013-10-09 16:53:00
12:21 PM,73.4,62.6,69,30.16,10.0,Variable,4.6,-,N/A,,Mostly Cloudy,0,2013-10-09 17:21:00
12:53 PM,75.0,62.1,64,30.14,10.0,Variable,3.5,-,N/A,,Overcast,0,2013-10-09 17:53:00
1:30 PM,75.2,62.6,65,30.13,10.0,South,3.5,-,N/A,,Mostly Cloudy,180,2013-10-09 18:30:00
1:53 PM,73.9,62.1,66,30.12,10.0,Calm,Calm,-,N/A,,Mostly Cloudy,0,2013-10-09 18:53:00
2:17 PM,75.2,62.6,65,30.11,10.0,South,5.8,-,N/A,,Mostly Cloudy,190,2013-10-09 19:17:00
2:53 PM,75.0,63.0,66,30.10,10.0,Calm,Calm,-,N/A,,Scattered Clouds,0,2013-10-09 19:53:00
3:53 PM,75.9,63.0,64,30.09,10.0,South,4.6,-,N/A,,Scattered Clouds,170,2013-10-09 20:53:00
4:53 PM,75.0,63.0,66,30.09,10.0,South,5.8,-,N/A,,Clear,170,2013-10-09 21:53:00
5:53 PM,72.0,63.0,73,30.09,10.0,South,5.8,-,N/A,,Clear,190,2013-10-09 22:53:00
6:53 PM,66.9,62.1,84,30.10,10.0,Calm,Calm,-,N/A,,Clear,0,2013-10-09 23:53:00
7:53 PM,63.0,60.1,90,30.10,5.0,Calm,Calm,-,N/A,,Partly Cloudy,0,2013-10-10 00:53:00
8:17 PM,60.8,60.8,100,30.11,1.8,Calm,Calm,-,N/A,,Clear,0,2013-10-10 01:17:00
8:35 PM,60.8,57.2,88,30.11,0.5,Calm,Calm,-,N/A,Fog,Fog,0,2013-10-10 01:35:00
8:48 PM,60.8,57.2,88,30.11,2.0,Calm,Calm,-,N/A,,Clear,0,2013-10-10 01:48:00
8:53 PM,60.1,57.9,93,30.11,1.8,Calm,Calm,-,N/A,,Clear,0,2013-10-10 01:53:00
9:05 PM,59.0,57.2,94,30.12,1.0,Calm,Calm,-,N/A,,Mist,0,2013-10-10 02:05:00
9:18 PM,57.2,55.4,94,30.12,0.5,Calm,Calm,-,N/A,Fog,Fog,0,2013-10-10 02:18:00
9:27 PM,60.8,57.2,88,30.12,1.2,SSW,3.5,-,N/A,,Scattered Clouds,210,2013-10-10 02:27:00
9:32 PM,60.8,59.0,94,30.12,3.0,SSW,4.6,-,N/A,,Partly Cloudy,200,2013-10-10 02:32:00
9:47 PM,57.2,57.2,100,30.12,1.8,Calm,Calm,-,N/A,,Partly Cloudy,0,2013-10-10 02:47:00
9:53 PM,59.0,57.0,93,30.12,2.0,Calm,Calm,-,N/A,,Partly Cloudy,0,2013-10-10 02:53:00
10:02 PM,60.8,57.2,88,30.12,7.0,Calm,Calm,-,N/A,,Partly Cloudy,0,2013-10-10 03:02:00
10:23 PM,57.2,55.4,94,30.12,1.0,Calm,Calm,-,N/A,,Mist,0,2013-10-10 03:23:00
10:30 PM,57.2,57.2,100,30.12,0.5,Calm,Calm,-,N/A,Fog,Fog,0,2013-10-10 03:30:00
10:39 PM,57.2,55.4,94,30.12,1.2,Calm,Calm,-,N/A,,Scattered Clouds,0,2013-10-10 03:39:00
10:44 PM,57.2,55.4,94,30.12,3.0,SSW,3.5,-,N/A,,Mostly Cloudy,210,2013-10-10 03:44:00
10:46 PM,57.2,55.4,94,30.12,1.8,Calm,Calm,-,N/A,,Mostly Cloudy,0,2013-10-10 03:46:00
10:53 PM,57.9,55.9,93,30.12,0.5,Calm,Calm,-,N/A,Fog,Fog,0,2013-10-10 03:53:00
11:03 PM,57.2,57.2,100,30.12,0.2,Calm,Calm,-,N/A,Fog,Fog,0,2013-10-10 04:03:00
11:10 PM,57.2,55.4,94,30.12,0.8,Calm,Calm,-,N/A,,Mist,0,2013-10-10 04:10:00
11:13 PM,57.2,55.4,94,30.12,1.2,Calm,Calm,-,N/A,,Partly Cloudy,0,2013-10-10 04:13:00
11:18 PM,57.2,55.4,94,30.12,0.8,Calm,Calm,-,N/A,,Mist,0,2013-10-10 04:18:00
11:32 PM,57.2,55.4,94,30.12,1.0,SSW,3.5,-,N/A,,Clear,210,2013-10-10 04:32:00
11:43 PM,57.2,55.4,94,30.12,0.8,Calm,Calm,-,N/A,,Clear,0,2013-10-10 04:43:00
11:53 PM,55.9,55.0,97,30.11,0.5,Calm,Calm,-,N/A,Fog,Fog,0,2013-10-10 04:53:00